Tenerife, El Salvador

10:01 PM WET en Noviembre 16, 2018 (GMT +0000)
Tenerife

Tiempo Historia de GCXO - Noviembre, 2018

Change the Weather History Date:

Jueves, Noviembre 8, 2018

  Actual Average Record
Temperature  
Temperatura media 61 ° F -  
Temperatura máxima 67 ° F 63 ° F 82 ° F (1998)
Temperatura mínima 55 ° F 54 ° F 55 ° F (2000)
Degree Days  
Grados día de calefacción 4    
Growing Degree Days 11 (Base 50)    
Moisture  
Punto de rocío 52 ° F    
Average Humidity 76    
Maximum Humidity 94    
Minimum Humidity 59    
Precipitación  
Precipitación 0.00 pul - - ()
Presión al nivel del mar  
Presión al nivel del mar 30.20 pul    
Viento  
Velocidad del viento 5 mph ()    
Velocidad máxima del viento 13 mph    
Max Gust Speed -    
Visibilidad 9.0 Millas    
Eventos      
Averages and records for this station are not official NWS values.
T = Trace of Precipitation, MM = Missing Value Source: Averaged Metar Reports

Daily Weather History Graph

Daily Weather History Graph

Search for Another Location

Airport or City:

Astronomía

Nov. 08, 2018 Salida Puesta
Hora real 7:22 AM WET 6:15 PM WET
Crepúsculo civil 6:57 AM WET 6:40 PM WET
Crepúsculo náutico 6:29 AM WET 7:08 PM WET
Crepúsculo astronómico 6:01 AM WET 7:36 PM WET
Luna 7:59 AM WET (11/8) 7:12 PM WET (11/8)
Horas de luz 11h 42m
Horas de luz
10h 53m
Luna nueva, 1% of the Moon is Illuminated
Nov 8
Luna nueva
Nov 15
Cuarto creciente
Nov 23
Luna llena
Nov 30
Cuarto menguante
Dic 7
Nueva

Hourly Weather History & Observations

Hora (WET) Temp. Punto de rocío Humedad Presión Visibilidad Wind Dir Velocidad del viento Velocidad de ráfagas Precip Eventos Condiciones
12:00 AM 58 ° F 51 ° F 72% 30.16 pul 19 mi Oeste 2.3 mph - -  
12:00 AM 57.2 ° F 50.0 ° F 77% 30.18 pul 6.2 mi Variable 2.3 mph - N/A   Nublado
12:30 AM 57.2 ° F 51.8 ° F 82% 30.18 pul 6.2 mi Oeste 4.6 mph - N/A   Nublado
1:00 AM 57.2 ° F 50.0 ° F 77% 30.18 pul 6.2 mi Oeste 4.6 mph - N/A   Muy nublado
1:30 AM 57.2 ° F 51.8 ° F 82% 30.18 pul 6.2 mi ONO 4.6 mph - N/A   Nublado
2:00 AM 57.2 ° F 51.8 ° F 82% 30.15 pul 6.2 mi Oeste 4.6 mph - N/A   Nublado
2:30 AM 55.4 ° F 50.0 ° F 82% 30.18 pul 6.2 mi NO 3.5 mph - N/A   Nublado
3:00 AM 57 ° F 50 ° F 70% 30.15 pul 19 mi Oeste 5.8 mph - -  
3:00 AM 57.2 ° F 50.0 ° F 77% 30.15 pul 6.2 mi ONO 4.6 mph - N/A   Nublado
3:30 AM 57.2 ° F 50.0 ° F 77% 30.15 pul 6.2 mi ONO 6.9 mph - N/A   Nublado
4:00 AM 57.2 ° F 50.0 ° F 77% 30.15 pul 6.2 mi NO 5.8 mph - N/A   Nublado
4:30 AM 57.2 ° F 50.0 ° F 77% 30.15 pul 6.2 mi ONO 5.8 mph - N/A   Nublado
5:00 AM 57.2 ° F 50.0 ° F 77% 30.15 pul 6.2 mi ONO 5.8 mph - N/A   Nublado
5:30 AM 57.2 ° F 50.0 ° F 77% 30.15 pul 6.2 mi ONO 4.6 mph - N/A   Nublado
6:00 AM 57 ° F 51 ° F 75% 30.15 pul 19 mi NO 3.5 mph - -   Muy nublado
6:00 AM 57.2 ° F 50.0 ° F 77% 30.15 pul 6.2 mi NO 3.5 mph - N/A   Muy nublado
6:30 AM 57.2 ° F 50.0 ° F 77% 30.15 pul 6.2 mi ONO 3.5 mph - N/A   Nubes dispersas
7:00 AM 55.4 ° F 48.2 ° F 77% 30.18 pul 6.2 mi Variable 1.2 mph - N/A   Parcialmente nublado
7:30 AM 55.4 ° F 50.0 ° F 82% 30.18 pul - Sur 5.8 mph - N/A   Despejado
8:30 AM 59.0 ° F 50.0 ° F 72% 30.21 pul - Variable 1.2 mph - N/A   Despejado
9:00 AM 60 ° F 50 ° F 61% 30.20 pul 19 mi ONO 6.9 mph - -   Despejado
9:00 AM 59.0 ° F 50.0 ° F 72% 30.21 pul - NO 4.6 mph - N/A   Despejado
9:30 AM 60.8 ° F 50.0 ° F 68% 30.24 pul - ONO 8.1 mph - N/A   Despejado
10:00 AM 60.8 ° F 50.0 ° F 68% 30.24 pul - ONO 11.5 mph - N/A   Despejado
10:30 AM 62.6 ° F 51.8 ° F 68% 30.24 pul - NO 6.9 mph - N/A   Despejado
11:00 AM 62.6 ° F 51.8 ° F 68% 30.24 pul 6.2 mi NO 9.2 mph - N/A   Parcialmente nublado
12:00 PM 65 ° F 54 ° F 59% 30.19 pul 19 mi Oeste 5.8 mph - -   Despejado
12:00 PM 62.6 ° F 50.0 ° F 63% 30.24 pul - ONO 5.8 mph - N/A   Despejado
12:30 PM 64.4 ° F 51.8 ° F 64% 30.24 pul - ONO 4.6 mph - N/A   Despejado
1:00 PM 66.2 ° F 53.6 ° F 64% 30.21 pul - ONO 4.6 mph - N/A   Despejado
1:30 PM 66.2 ° F 53.6 ° F 64% 30.21 pul 6.2 mi ONO 6.9 mph - N/A   Parcialmente nublado
2:30 PM 66.2 ° F 53.6 ° F 64% 30.21 pul 6.2 mi ONO 6.9 mph - N/A   Parcialmente nublado
3:00 PM 67 ° F 56 ° F 61% 30.13 pul 19 mi ONO 10.4 mph - -   Despejado
3:30 PM 64.4 ° F 53.6 ° F 68% 30.21 pul - ONO 11.5 mph - N/A   Despejado
4:00 PM 64.4 ° F 53.6 ° F 68% 30.21 pul - ONO 12.7 mph - N/A   Despejado
5:00 PM 62.6 ° F 53.6 ° F 72% 30.21 pul 6.2 mi ONO 10.4 mph - N/A   Parcialmente nublado
5:30 PM 60.8 ° F 53.6 ° F 77% 30.21 pul 6.2 mi ONO 11.5 mph - N/A   Parcialmente nublado
6:00 PM 60 ° F 55 ° F 77% 30.19 pul 19 mi ONO 12.7 mph - -   Nubes dispersas
6:00 PM 59.0 ° F 53.6 ° F 82% 30.21 pul 6.2 mi ONO 11.5 mph - N/A   Parcialmente nublado
6:30 PM 57.2 ° F 53.6 ° F 88% 30.21 pul - ONO 11.5 mph - N/A   Despejado
7:00 PM 57.2 ° F 53.6 ° F 88% 30.21 pul - ONO 9.2 mph - N/A   Despejado
7:30 PM 59.0 ° F 55.4 ° F 88% 30.24 pul 6.2 mi ONO 10.4 mph - N/A   Parcialmente nublado
8:00 PM 57.2 ° F 53.6 ° F 88% 30.24 pul 6.2 mi Oeste 9.2 mph - N/A   Parcialmente nublado
8:30 PM 57.2 ° F 53.6 ° F 88% 30.24 pul 6.2 mi Oeste 10.4 mph - N/A   Parcialmente nublado
9:00 PM 57 ° F 55 ° F 90% 30.24 pul 19 mi Oeste 8.1 mph - -  
9:00 PM 57.2 ° F 55.4 ° F 94% 30.24 pul 6.2 mi Oeste 8.1 mph - N/A   Parcialmente nublado
9:30 PM 57.2 ° F 55.4 ° F 94% 30.27 pul 6.2 mi Oeste 5.8 mph - N/A   Nubes dispersas
10:00 PM 59.0 ° F 55.4 ° F 88% 30.27 pul 6.2 mi ONO 6.9 mph - N/A   Nubes dispersas
11:00 PM 57.2 ° F 55.4 ° F 94% 30.27 pul 6.2 mi ONO 5.8 mph - N/A   Nubes dispersas
11:30 PM 59.0 ° F 55.4 ° F 88% 30.27 pul 6.2 mi ONO 4.6 mph - N/A   Parcialmente nublado